SWR126P LIMC-LSZH

Flight info

Callsign SWR126P
Flight time 0h 33m
Altitude 28000
Route PEPAG DCT CANNE Z651 KELIP
Aircraft A320/M-SDE3FGHIRWY/LB1

Departure

Time 2026-02-17 14:33
Airport Milan Malpensa International Airport (LIMC)

Arrival

Time 2026-02-17 15:06
Airport Zürich Airport (LSZH)
Time Latitude Longitude Altitude Speed Heading
2026-02-17 14:14 45.62379 8.71580 739 ft 0 kts 11°
2026-02-17 14:22 45.62376 8.71579 738 ft 2 kts 11°
2026-02-17 14:23 45.62339 8.71573 740 ft 3 kts 337°
2026-02-17 14:23 45.62323 8.71587 740 ft 3 kts 333°
2026-02-17 14:23 45.62306 8.71595 740 ft 3 kts 13°
2026-02-17 14:23 45.62295 8.71588 740 ft 2 kts 76°
2026-02-17 14:24 45.62293 8.71572 740 ft 3 kts 79°
2026-02-17 14:24 45.62291 8.71558 741 ft 0 kts 79°
2026-02-17 14:27 45.62293 8.71572 740 ft 7 kts 79°
2026-02-17 14:27 45.62304 8.71652 741 ft 8 kts 79°
2026-02-17 14:28 45.62320 8.71769 741 ft 14 kts 79°
2026-02-17 14:28 45.62338 8.71912 741 ft 15 kts 79°
2026-02-17 14:28 45.62360 8.72072 741 ft 17 kts 78°
2026-02-17 14:28 45.62347 8.72223 741 ft 17 kts 150°
2026-02-17 14:29 45.62237 8.72256 741 ft 15 kts 168°
2026-02-17 14:29 45.62139 8.72284 740 ft 13 kts 169°
2026-02-17 14:29 45.62053 8.72308 741 ft 12 kts 169°
2026-02-17 14:29 45.61978 8.72328 741 ft 11 kts 169°
2026-02-17 14:30 45.61890 8.72353 741 ft 13 kts 168°
2026-02-17 14:30 45.61803 8.72377 740 ft 13 kts 169°
2026-02-17 14:31 45.61476 8.72469 741 ft 10 kts 166°
2026-02-17 14:31 45.61431 8.72528 742 ft 8 kts 112°
2026-02-17 14:31 45.61429 8.72579 742 ft 1 kts 83°
2026-02-17 14:31 45.61433 8.72617 742 ft 5 kts 80°
2026-02-17 14:32 45.61445 8.72701 742 ft 9 kts 76°
2026-02-17 14:32 45.61493 8.72719 742 ft 7 kts 349°
2026-02-17 14:32 45.61574 8.72696 742 ft 29 kts 349°
2026-02-17 14:32 45.62031 8.72570 742 ft 101 kts 349°
2026-02-17 14:33 45.62916 8.72325 744 ft 155 kts 349°
2026-02-17 14:33 45.65043 8.71376 1965 ft 164 kts 331°
2026-02-17 14:33 45.66038 8.70566 2620 ft 165 kts 331°
2026-02-17 14:34 45.67042 8.69753 3256 ft 166 kts 331°
2026-02-17 14:34 45.68037 8.68930 3897 ft 165 kts 323°
2026-02-17 14:34 45.68961 8.67867 4255 ft 182 kts 320°
2026-02-17 14:35 45.71191 8.65271 4942 ft 225 kts 320°
2026-02-17 14:35 45.72458 8.63904 5624 ft 233 kts 332°
2026-02-17 14:35 45.73493 8.63488 6099 ft 238 kts 359°
2026-02-17 14:35 45.75064 8.64165 6850 ft 243 kts 37°
2026-02-17 14:36 45.76207 8.65945 7676 ft 245 kts 54°
2026-02-17 14:36 45.77113 8.68047 8476 ft 250 kts 57°
2026-02-17 14:36 45.77940 8.70266 9280 ft 257 kts 65°
2026-02-17 14:36 45.78242 8.72825 10043 ft 267 kts 89°
2026-02-17 14:37 45.77886 8.75501 10662 ft 282 kts 110°
2026-02-17 14:37 45.76882 8.77902 11403 ft 287 kts 123°
2026-02-17 14:37 45.75975 8.80453 12060 ft 288 kts 99°
2026-02-17 14:37 45.75837 8.83258 12724 ft 280 kts 73°
2026-02-17 14:38 45.76451 8.85828 13437 ft 267 kts 49°
2026-02-17 14:38 45.77620 8.87785 14129 ft 252 kts 27°
2026-02-17 14:38 45.79142 8.89006 14489 ft 255 kts
2026-02-17 14:39 45.82854 8.89261 14805 ft 289 kts 352°
2026-02-17 14:39 45.84943 8.89165 14935 ft 310 kts 353°
2026-02-17 14:39 45.87141 8.89077 15065 ft 329 kts 353°
2026-02-17 14:39 45.89494 8.88993 15245 ft 345 kts 354°
2026-02-17 14:40 45.91918 8.88914 15662 ft 350 kts 354°
2026-02-17 14:40 45.94372 8.88841 16254 ft 352 kts 354°
2026-02-17 14:40 45.99277 8.88706 17475 ft 353 kts 354°
2026-02-17 14:41 46.01742 8.88630 18033 ft 355 kts 353°
2026-02-17 14:41 46.04208 8.88545 18660 ft 354 kts 353°
2026-02-17 14:41 46.06670 8.88457 19227 ft 354 kts 353°
2026-02-17 14:41 46.09132 8.88369 19729 ft 354 kts 352°
2026-02-17 14:42 46.11591 8.88282 20226 ft 354 kts 352°
2026-02-17 14:42 46.14053 8.88197 20835 ft 352 kts 351°
2026-02-17 14:42 46.16509 8.88113 21319 ft 353 kts 351°
2026-02-17 14:43 46.21392 8.87577 22219 ft 352 kts 347°
2026-02-17 14:43 46.23826 8.87173 22739 ft 351 kts 346°
2026-02-17 14:43 46.26223 8.86759 23254 ft 352 kts 346°
2026-02-17 14:43 46.28650 8.86348 23702 ft 352 kts 346°
2026-02-17 14:44 46.31089 8.85953 24125 ft 352 kts 346°
2026-02-17 14:44 46.33529 8.85578 24457 ft 351 kts 347°
2026-02-17 14:44 46.35961 8.85211 24784 ft 352 kts 347°
2026-02-17 14:44 46.38412 8.84845 25109 ft 356 kts 347°
2026-02-17 14:45 46.40879 8.84476 25501 ft 357 kts 347°
2026-02-17 14:45 46.43353 8.84107 25828 ft 358 kts 347°
2026-02-17 14:45 46.45838 8.83736 26139 ft 358 kts 347°
2026-02-17 14:45 46.48305 8.83364 26634 ft 355 kts 347°
2026-02-17 14:46 46.50747 8.82996 27176 ft 349 kts 347°
2026-02-17 14:46 46.53066 8.82657 27773 ft 328 kts 346°
2026-02-17 14:46 46.55247 8.82352 27926 ft 304 kts 345°
2026-02-17 14:47 46.59242 8.81769 27961 ft 288 kts 345°
2026-02-17 14:47 46.61284 8.81428 27951 ft 301 kts 345°
2026-02-17 14:47 46.63337 8.81098 28004 ft 293 kts 346°
2026-02-17 14:47 46.65352 8.80787 27988 ft 290 kts 346°
2026-02-17 14:48 46.67348 8.80485 27977 ft 287 kts 345°
2026-02-17 14:48 46.69333 8.80185 27959 ft 285 kts 345°
2026-02-17 14:48 46.71274 8.79897 27642 ft 277 kts 345°
2026-02-17 14:48 46.73177 8.79614 27112 ft 272 kts 345°
2026-02-17 14:49 46.75057 8.79329 26602 ft 270 kts 345°
2026-02-17 14:49 46.76924 8.79040 25984 ft 271 kts 345°
2026-02-17 14:49 46.78801 8.78746 25557 ft 270 kts 345°
2026-02-17 14:49 46.80663 8.78460 25032 ft 268 kts 343°
2026-02-17 14:50 46.82522 8.78176 24533 ft 269 kts 345°
2026-02-17 14:50 46.84380 8.77892 24157 ft 268 kts 345°
2026-02-17 14:50 46.86214 8.77613 23765 ft 270 kts 344°
2026-02-17 14:51 46.89953 8.77036 22645 ft 271 kts 344°
2026-02-17 14:51 46.91835 8.76741 22163 ft 273 kts 345°
2026-02-17 14:51 46.93725 8.76445 21640 ft 272 kts 345°
2026-02-17 14:51 46.95611 8.76157 20959 ft 273 kts 346°
2026-02-17 14:52 46.97549 8.75853 20030 ft 287 kts 346°
2026-02-17 14:52 46.99587 8.75523 18984 ft 302 kts 347°
2026-02-17 14:52 47.01733 8.75175 17953 ft 318 kts 348°
2026-02-17 14:52 47.03958 8.74820 16553 ft 325 kts 348°
2026-02-17 14:53 47.06210 8.74471 15448 ft 325 kts 348°
2026-02-17 14:53 47.08459 8.74051 14899 ft 318 kts 345°
2026-02-17 14:53 47.10540 8.73558 14768 ft 295 kts 344°
2026-02-17 14:53 47.12496 8.73041 14590 ft 279 kts 343°
2026-02-17 14:54 47.14377 8.72519 14363 ft 273 kts 342°
2026-02-17 14:54 47.16242 8.71997 14033 ft 272 kts 343°
2026-02-17 14:54 47.18101 8.71478 13666 ft 272 kts 342°
2026-02-17 14:55 47.21822 8.70466 12902 ft 271 kts 342°
2026-02-17 14:55 47.23679 8.69970 12502 ft 271 kts 343°
2026-02-17 14:55 47.25526 8.69453 12126 ft 269 kts 340°
2026-02-17 14:55 47.27312 8.68702 11796 ft 264 kts 334°
2026-02-17 14:56 47.29001 8.67693 11433 ft 260 kts 328°
2026-02-17 14:56 47.30732 8.66847 11010 ft 270 kts 347°
2026-02-17 14:56 47.32632 8.67228 10608 ft 287 kts 14°
2026-02-17 14:56 47.34319 8.68913 10220 ft 303 kts 41°
2026-02-17 14:57 47.35411 8.71561 9739 ft 312 kts 68°
2026-02-17 14:57 47.35712 8.74732 9112 ft 317 kts 90°
2026-02-17 14:57 47.35598 8.77928 8891 ft 303 kts 93°
2026-02-17 14:57 47.35448 8.80931 8756 ft 286 kts 94°
2026-02-17 14:58 47.35297 8.83811 8394 ft 279 kts 94°
2026-02-17 14:58 47.35146 8.86652 8070 ft 277 kts 94°
2026-02-17 14:58 47.34994 8.89477 7781 ft 275 kts 94°
2026-02-17 14:59 47.35509 8.94824 7181 ft 258 kts 48°
2026-02-17 14:59 47.36785 8.96464 6973 ft 235 kts 13°
2026-02-17 14:59 47.38322 8.97007 6958 ft 221 kts 346°
2026-02-17 14:59 47.39704 8.96318 6930 ft 207 kts 319°
2026-02-17 15:00 47.40848 8.95074 6795 ft 203 kts 314°
2026-02-17 15:00 47.41874 8.93677 6653 ft 199 kts 307°
2026-02-17 15:00 47.42744 8.92113 6558 ft 194 kts 296°
2026-02-17 15:00 47.43227 8.90268 6412 ft 193 kts 279°
2026-02-17 15:01 47.43386 8.88304 6154 ft 192 kts 276°
2026-02-17 15:01 47.43530 8.86351 5870 ft 191 kts 276°
2026-02-17 15:01 47.43674 8.84399 5581 ft 191 kts 276°
2026-02-17 15:01 47.43816 8.82475 5290 ft 191 kts 277°
2026-02-17 15:02 47.43959 8.80531 5011 ft 190 kts 277°
2026-02-17 15:02 47.44102 8.78576 4707 ft 186 kts 276°
2026-02-17 15:02 47.44236 8.76759 4427 ft 178 kts 278°
2026-02-17 15:03 47.44482 8.73371 3919 ft 158 kts 278°
2026-02-17 15:03 47.44598 8.71774 3671 ft 154 kts 278°
2026-02-17 15:03 47.44713 8.70202 3443 ft 154 kts 277°
2026-02-17 15:03 47.44823 8.68672 3213 ft 144 kts 278°
2026-02-17 15:04 47.44927 8.67244 2997 ft 138 kts 277°
2026-02-17 15:04 47.45027 8.65851 2795 ft 135 kts 277°
2026-02-17 15:04 47.45128 8.64459 2601 ft 139 kts 277°
2026-02-17 15:04 47.45227 8.63082 2357 ft 136 kts 277°
2026-02-17 15:05 47.45327 8.61686 2138 ft 137 kts 276°
2026-02-17 15:05 47.45427 8.60308 1935 ft 134 kts 277°
2026-02-17 15:05 47.45523 8.58951 1752 ft 132 kts 276°
2026-02-17 15:05 47.45619 8.57606 1565 ft 131 kts 278°
2026-02-17 15:06 47.45712 8.56288 1420 ft 121 kts 277°
2026-02-17 15:06 47.45786 8.55297 1397 ft 59 kts 276°
2026-02-17 15:06 47.45807 8.54984 1395 ft 20 kts 274°
2026-02-17 15:07 47.45730 8.54861 1400 ft 10 kts 155°
2026-02-17 15:07 47.45673 8.54901 1400 ft 9 kts 155°
2026-02-17 15:07 47.45611 8.54944 1402 ft 9 kts 154°
2026-02-17 15:07 47.45547 8.54990 1394 ft 11 kts 154°
2026-02-17 15:08 47.45493 8.55042 1401 ft 9 kts 139°
2026-02-17 15:08 47.45448 8.55112 1399 ft 8 kts 128°
2026-02-17 15:08 47.45419 8.55182 1399 ft 7 kts 119°
2026-02-17 15:08 47.45396 8.55243 1403 ft 8 kts 118°
2026-02-17 15:09 47.45374 8.55302 1400 ft 5 kts 120°
2026-02-17 15:09 47.45358 8.55342 1400 ft 3 kts 119°
2026-02-17 15:09 47.45341 8.55387 1404 ft 7 kts 119°
2026-02-17 15:09 47.45313 8.55464 1408 ft 10 kts 118°
2026-02-17 15:10 47.45293 8.55518 1410 ft 3 kts 118°
2026-02-17 15:10 47.45273 8.55606 1406 ft 14 kts 97°
2026-02-17 15:10 47.45264 8.55737 1407 ft 14 kts 96°
2026-02-17 15:11 47.45266 8.55932 1411 ft 4 kts 28°
2026-02-17 15:11 47.45295 8.55938 1407 ft 4 kts
2026-02-17 15:11 47.45318 8.55941 1409 ft 2 kts
2026-02-17 15:11 47.45329 8.55943 1411 ft 0 kts